Flag for Spain Weather past 2 weeks in Mahón, Menorca, Spain

Now
72 °F

Fog.


Feels Like: 69 °F
Forecast: 61 / 71 °F
Wind: 6 mph from West

Location: Menorca / Mahon

Current Time: Oct 21, 2014 at 11:16:04 AM

Latest Report: Oct 21, 2014 at 10:00 AM


Visibility: N/A

Pressure: 30.12 "Hg

Humidity: 91%

Dew point: 69 °F

Location of MahónLocation

Historic Weather in Mahón — Graph

°F

Mahón temperature yesterday

Maximum temperature yesterday: 80 °F (at 3:00 PM)
Minimum temperature yesterday: 64 °F (at 5:00 AM)
Average temperature yesterday: 72 °F

Past Weeks' High & Low Weather Summary

 TemperatureHumidityPressure
High84 °F (Oct 18, 3:00 PM)98% (Oct 19, 7:00 AM)30.24 "Hg (Oct 19, 7:00 AM)
Low62 °F (Oct 15, 12:00 AM)45% (Oct 18, 1:00 PM)29.74 "Hg (Oct 14, 5:00 PM)
Average73 °F80%29.97 "Hg
* Reported Oct 6 10:00 AM — Oct 21 10:00 AM, Mahón, Weather by CustomWeather, © 2014

Note: Actual official high and low records may vary slightly from our data, if they occured in-between our weather recording intervals... More about our weather records

Advertising

Mahón weather history for previous 24 hours

 ConditionsComfort  
Time TempWeatherWind HumidityBarometerVisibility
10:00 AM
Oct 21
72 °FFog.6 mph91%30.12 "HgN/A
9:00 AM67 °FPassing clouds.7 mph97%30.10 "Hg12 mi
8:00 AM65 °FScattered clouds.3 mph97%30.09 "Hg9 mi
7:00 AM66 °FFog.2 mph97%30.09 "HgN/A
6:00 AM66 °FFog.5 mph97%30.09 "HgN/A
5:00 AM66 °FFog.5 mph97%30.09 "Hg6 mi
4:00 AM67 °FFog.2 mph96%30.10 "HgN/A
3:00 AM68 °FFog.7 mph96%30.12 "HgN/A
2:00 AM69 °FPassing clouds.7 mph96%30.12 "Hg7 mi
1:00 AM70 °FFog.7 mph96%30.13 "HgN/A
12:00 AM69 °FMild.7 mph96%30.13 "HgN/A
11:00 PM
Oct 20
69 °FFog.7 mph96%30.14 "Hg6 mi
10:00 PM70 °FMild.7 mph95%30.13 "HgN/A
9:00 PM70 °FMild.8 mph95%30.14 "HgN/A
8:00 PM71 °FPassing clouds.3 mph93%30.13 "Hg12 mi
7:00 PM73 °FMild.5 mph88%30.13 "HgN/A
6:00 PM76 °FMild.7 mph78%30.13 "HgN/A
5:00 PM79 °FScattered clouds.8 mph66%30.14 "Hg16 mi
4:00 PM79 °FWarm.8 mph58%30.15 "HgN/A
3:00 PM80 °FScattered clouds.8 mph61%30.16 "Hg16 mi
2:00 PM79 °FScattered clouds.8 mph68%30.19 "Hg14 mi
1:00 PM78 °FWarm.8 mph70%30.21 "HgN/A
12:00 PM78 °FWarm.6 mph76%30.22 "HgN/A
11:00 AM76 °FScattered clouds.6 mph83%30.23 "Hg12 mi
Weather by CustomWeather, © 2014

See weather overviewHow to use our weather pages